User: anonymous   Login
Location: Lafig�re
(44.4503°N, 4.0357°E)
Time: 00:25:28
(UTC+00:00)
Language:

ATLAS 3B R/B - Orbit

View from above orbital plane
View from above orbital plane
View from above satellite
View from above satellite

Ground track
Ground track

The orbit data is extracted from the following two-line orbital elements,

1 28538U 05004B   20328.16696921 0.00000000  00000-0  00000-0 0    03
2 28538  63.8401  13.3831 0111934  30.6049 329.3951 13.43137207    03
Epoch (UTC): 23 November 2020 04:00:26
Eccentricity: 0.0111934
inclination: 63.8401°
perigee height: 1014 km
apogee height: 1181 km
right ascension of ascending node: 13.3831°
argument of perigee: 30.6049°
revolutions per day: 13.43137207
mean anomaly at epoch: 329.3951°
orbit number at epoch: 0

The dashed part of the orbit path shows where the satellite is in the earth's shadow,  

DLR